Location: Battersea Observatory
(44.4318°N, 76.3841°W)
Time: 21:29:44
(UTC-04:00)

Tiros 1 despin weight - Pass Details

Date: 28 January 2022
Orbit: 592 x 639 km, 48.2° (Epoch: 25 May)

Event Time Altitude Azimuth Distance (km) Brightness Sun altitude
Rises 18:37:44 0° 280° (W) 2,889 ? -15.8°
Reaches altitude 10° 18:40:05 10° 285° (WNW) 1,991 ? -16.3°
Maximum altitude 18:44:34 53° 3° (N) 775 ? -17.0°
Enters shadow 18:46:24 32° 63° (ENE) 1,078 ? -17.4°
Drops below altitude 10° 18:49:14 10° 81° (E) 2,055 - -17.9°
Sets 18:51:31 0° 86° (E) 2,932 - -18.3°
